Location: Unspecified
(0.0000°N, 0.0000°E)
Time: 06:33:08
(UTC+00:00)

Vanguard 2 Rocket - Pass Details

Date: 09 October 2023
Orbit: 552 x 3312 km, 32.9° (Epoch: 06 December)

Event Time Altitude Azimuth Distance (km) Brightness Sun altitude
Rises 06:56:04 0° 286° (WNW) 3,855 9.5 17.1°
Reaches altitude 10° 06:59:31 10° 306° (NW) 3,292 9.3 17.9°
Maximum altitude 07:05:00 18° 346° (NNW) 3,316 9.7 19.3°
Drops below altitude 10° 07:12:31 10° 24° (NNE) 4,706 10.8 21.1°
Sets 07:19:12 0° 40° (NE) 6,309 11.6 22.8°
